Погода в Гуляеве

Россия / Республика Мордовия     54°44′11″N   45°07′30″E
темп.,
°C
ветер,
м/с
пор.,
м/с
влажн.,
%
обл.,
%
осадки,
мм/ч
давл.,
гПа
погр.,
м
24 октября, вс
вс2400:00+5зюз49798 0.0 1010422
03:00+3зюз49915 0.0 1010269
06:00+2зюз410945 0.0 1011325
09:00+4зюз510805 0.0 1012537
12:00+5з61064100 0.0 10131254
15:00+5зюз4873100 0.0 1013861
18:00+4зюз4885100 0.1 1013669
21:00+3зюз3795100 0.2 1013518
25 октября, пн
пн2500:00+2зсз4897100 0.8 1013568
03:00+1сз6129099 1.2 1016717
06:000ссз6128772 0.2 1018767
09:000ссз7117974 0.3 1022857
12:00+2ссз685921 0.0 10241088
15:00+2ссз575274 0.0 10251070
18:00−1сз377162 0.0 1028165
21:00−1з257761 0.0 1028135
26 октября, вт
вт2600:00−2зюз378165 0.0 1028178
03:00−2юз4117557 0.0 1028375
06:00−1юз5147378 0.0 1026435
09:00+1юз6146311 0.0 1025556
12:00+5зюз7125397 0.0 1024735
15:00+5зюз61354100 0.0 1023756
18:00+3зюз61462100 0.0 1023542
21:00+2зюз51363100 0.0 1023503
27 октября, ср
ср2700:00+2зюз51367100 0.0 1023456
03:00+2зюз51369100 0.0 1022411
06:00+2юз5136843 0.0 1022423
09:00+3юз5146147 0.0 1022476
12:00+7зюз712485 0.0 1021695
15:00+8юз613485 0.0 1019837
18:00+6юз6145425 0.0 1019617
21:00+5юз61552100 0.0 1018657
28 октября, чт
чт2800:00+4юз61549100 0.0 1016655
03:00+5юз61357100 0.0 1015811
06:00+4зюз61396100 0.0 1015844
09:00+6з61177100 0.1 1017721
12:00+8з696865 0.0 10181034
15:00+7з5763100 0.0 10181102
18:00+5зюз31077100 0.0 1018418
21:00+6юз41171100 0.0 1017488